Total_Precipitation_Accumulation
0.00 0.00 0.00 0.00 0.00 0.00 0.00 0.00 0.00 0.00 0.00 0.00 0.00 0.00 0.00 0.00 0.00 0.00 0.00 0.00 0.00 0.01 0.02 0.02 0.03 0.04 0.06 0.08 0.10 0.11 0.11 0.11 0.12 0.12 0.13 0.13 0.13 0.13 0.14 0.15 0.16 0.17 0.18
0.00 0.00 0.00 0.00 0.00 0.00 0.00 0.00 0.00 0.00 0.00 0.00 0.00 0.00 0.00 0.00 0.00 0.00 0.00 0.00 0.00 0.00 0.01 0.01 0.03 0.04 0.06 0.09 0.11 0.13 0.13 0.13 0.13 0.13 0.14 0.14 0.15 0.15 0.15 0.16 0.17 0.18 0.19
0.00 0.00 0.00 0.00 0.00 0.00 0.00 0.00 0.00 0.00 0.00 0.00 0.00 0.00 0.00 0.00 0.00 0.00 0.00 0.00 0.00 0.00 0.00 0.01 0.03 0.05 0.05 0.06 0.09 0.11 0.12 0.14 0.15 0.16 0.17 0.18 0.18 0.18 0.18 0.19 0.20 0.21 0.22
0.01 0.01 0.01 0.00 0.00 0.00 0.00 0.00 0.00 0.00 0.00 0.00 0.00 0.00 0.00 0.00 0.00 0.00 0.00 0.00 0.00 0.00 0.00 0.01 0.03 0.04 0.04 0.05 0.07 0.09 0.10 0.12 0.13 0.14 0.16 0.19 0.21 0.22 0.24 0.26 0.27 0.27 0.27
0.04 0.03 0.02 0.01 0.01 0.01 0.00 0.00 0.00 0.00 0.00 0.00 0.00 0.00 0.00 0.00 0.00 0.00 0.00 0.00 0.00 0.00 0.00 0.00 0.01 0.02 0.03 0.04 0.06 0.09 0.12 0.12 0.11 0.12 0.13 0.15 0.17 0.20 0.23 0.27 0.31 0.34 0.36
0.08 0.06 0.04 0.03 0.01 0.01 0.01 0.01 0.01 0.01 0.01 0.01 0.01 0.00 0.00 0.00 0.00 0.00 0.00 0.00 0.00 0.00 0.00 0.00 0.01 0.01 0.02 0.04 0.06 0.08 0.12 0.13 0.12 0.12 0.13 0.14 0.15 0.17 0.20 0.24 0.29 0.34 0.42
0.16 0.12 0.08 0.06 0.04 0.03 0.02 0.02 0.02 0.02 0.02 0.02 0.01 0.01 0.00 0.00 0.00 0.00 0.01 0.00 0.00 0.01 0.01 0.01 0.01 0.01 0.02 0.03 0.06 0.08 0.10 0.13 0.14 0.15 0.16 0.16 0.18 0.20 0.22 0.26 0.30 0.35 0.43
0.22 0.18 0.12 0.11 0.10 0.07 0.05 0.05 0.05 0.05 0.04 0.04 0.05 0.06 0.04 0.01 0.00 0.01 0.01 0.01 0.01 0.01 0.01 0.02 0.02 0.03 0.03 0.04 0.04 0.06 0.08 0.10 0.15 0.21 0.25 0.25 0.26 0.28 0.31 0.35 0.39 0.42 0.45
0.27 0.24 0.20 0.18 0.16 0.14 0.10 0.10 0.11 0.12 0.13 0.12 0.11 0.15 0.13 0.07 0.04 0.02 0.01 0.02 0.02 0.02 0.02 0.02 0.03 0.04 0.04 0.04 0.05 0.05 0.08 0.11 0.15 0.21 0.29 0.35 0.39 0.43 0.47 0.51 0.54 0.57 0.61
0.29 0.28 0.27 0.25 0.23 0.21 0.19 0.21 0.24 0.24 0.24 0.20 0.16 0.15 0.16 0.15 0.16 0.11 0.04 0.03 0.04 0.04 0.04 0.05 0.05 0.06 0.06 0.07 0.08 0.11 0.15 0.20 0.25 0.30 0.38 0.50 0.61 0.71 0.79 0.84 0.87 0.90 0.89
0.26 0.27 0.28 0.29 0.28 0.29 0.32 0.35 0.36 0.36 0.35 0.33 0.29 0.28 0.28 0.25 0.23 0.25 0.16 0.08 0.08 0.09 0.09 0.09 0.08 0.09 0.10 0.12 0.15 0.21 0.28 0.34 0.41 0.49 0.63 0.79 0.93 1.05 1.18 1.28 1.31 1.28 1.19
0.26 0.26 0.29 0.31 0.35 0.37 0.38 0.42 0.46 0.49 0.51 0.50 0.47 0.43 0.43 0.39 0.34 0.37 0.33 0.22 0.19 0.17 0.17 0.17 0.17 0.18 0.20 0.22 0.25 0.32 0.35 0.40 0.46 0.56 0.72 0.93 1.09 1.21 1.33 1.42 1.44 1.40 1.37
0.20 0.23 0.29 0.34 0.39 0.44 0.47 0.48 0.48 0.48 0.54 0.59 0.60 0.59 0.58 0.55 0.53 0.58 0.61 0.50 0.40 0.32 0.31 0.31 0.33 0.35 0.35 0.36 0.37 0.39 0.39 0.42 0.48 0.55 0.69 0.90 0.98 0.96 0.95 1.02 1.17 1.27 1.33
0.25 0.29 0.32 0.35 0.38 0.40 0.42 0.43 0.45 0.47 0.53 0.58 0.62 0.65 0.65 0.62 0.64 0.68 0.75 0.81 0.74 0.58 0.51 0.48 0.48 0.47 0.46 0.44 0.42 0.44 0.38 0.42 0.43 0.46 0.55 0.64 0.70 0.71 0.71 0.75 0.84 0.95 1.02
0.19 0.22 0.26 0.28 0.28 0.30 0.32 0.35 0.37 0.39 0.42 0.47 0.51 0.55 0.59 0.58 0.60 0.63 0.71 0.86 0.98 0.88 0.67 0.54 0.51 0.49 0.50 0.49 0.50 0.47 0.41 0.45 0.44 0.42 0.44 0.45 0.45 0.48 0.49 0.53 0.60 0.68 0.74
0.12 0.14 0.17 0.19 0.20 0.21 0.21 0.23 0.24 0.24 0.28 0.31 0.36 0.41 0.45 0.47 0.51 0.56 0.62 0.70 0.84 0.94 0.80 0.56 0.49 0.47 0.48 0.45 0.45 0.41 0.37 0.41 0.40 0.39 0.39 0.40 0.40 0.39 0.40 0.43 0.47 0.52 0.57
0.08 0.10 0.11 0.13 0.13 0.13 0.13 0.14 0.14 0.15 0.18 0.21 0.25 0.31 0.36 0.40 0.44 0.47 0.51 0.56 0.63 0.73 0.74 0.55 0.46 0.43 0.42 0.38 0.35 0.34 0.30 0.29 0.28 0.31 0.34 0.37 0.39 0.39 0.40 0.41 0.42 0.44 0.47
0.07 0.07 0.07 0.08 0.09 0.09 0.09 0.09 0.10 0.11 0.13 0.15 0.18 0.22 0.26 0.30 0.36 0.41 0.45 0.47 0.48 0.52 0.60 0.54 0.40 0.35 0.32 0.28 0.26 0.25 0.24 0.24 0.22 0.24 0.30 0.35 0.40 0.41 0.40 0.39 0.39 0.40 0.42
0.06 0.06 0.05 0.05 0.06 0.06 0.07 0.08 0.09 0.11 0.12 0.14 0.18 0.23 0.28 0.33 0.38 0.41 0.43 0.44 0.44 0.46 0.53 0.56 0.40 0.31 0.28 0.24 0.24 0.20 0.21 0.21 0.20 0.21 0.25 0.27 0.30 0.33 0.36 0.38 0.38 0.38 0.38
0.06 0.05 0.05 0.06 0.06 0.07 0.08 0.10 0.11 0.14 0.17 0.20 0.23 0.28 0.31 0.33 0.33 0.33 0.34 0.36 0.39 0.41 0.42 0.46 0.42 0.33 0.28 0.22 0.22 0.20 0.20 0.19 0.20 0.21 0.24 0.26 0.28 0.30 0.30 0.31 0.31 0.31 0.31
0.07 0.07 0.08 0.08 0.09 0.09 0.12 0.15 0.18 0.21 0.25 0.29 0.31 0.31 0.30 0.28 0.26 0.25 0.26 0.28 0.31 0.34 0.41 0.49 0.46 0.36 0.28 0.24 0.21 0.22 0.27 0.26 0.24 0.22 0.24 0.24 0.27 0.32 0.35 0.38 0.40 0.39 0.40
0.13 0.13 0.14 0.15 0.17 0.19 0.27 0.25 0.24 0.28 0.32 0.32 0.30 0.26 0.24 0.21 0.19 0.19 0.20 0.22 0.28 0.37 0.45 0.52 0.50 0.42 0.30 0.29 0.33 0.40 0.46 0.52 0.45 0.28 0.33 0.39 0.44 0.51 0.52 0.53 0.59 0.60 0.60
0.23 0.28 0.30 0.30 0.33 0.39 0.41 0.32 0.27 0.24 0.24 0.24 0.22 0.19 0.17 0.15 0.14 0.12 0.11 0.15 0.19 0.27 0.36 0.40 0.36 0.26 0.24 0.24 0.38 0.50 0.54 0.60 0.52 0.38 0.45 0.52 0.49 0.51 0.51 0.54 0.62 0.62 0.58
0.38 0.44 0.46 0.45 0.42 0.41 0.36 0.28 0.23 0.17 0.14 0.12 0.09 0.08 0.07 0.06 0.06 0.10 0.16 0.20 0.14 0.11 0.12 0.14 0.14 0.15 0.19 0.25 0.41 0.59 0.66 0.68 0.53 0.42 0.41 0.48 0.41 0.39 0.38 0.40 0.47 0.49 0.46
0.43 0.44 0.41 0.37 0.33 0.30 0.22 0.15 0.11 0.10 0.08 0.06 0.04 0.04 0.05 0.04 0.06 0.18 0.26 0.26 0.14 0.05 0.04 0.08 0.13 0.14 0.17 0.20 0.28 0.49 0.68 0.78 0.64 0.37 0.31 0.38 0.38 0.38 0.36 0.33 0.36 0.42 0.42
0.38 0.33 0.27 0.22 0.18 0.15 0.12 0.08 0.06 0.05 0.04 0.04 0.04 0.03 0.03 0.05 0.12 0.25 0.26 0.24 0.13 0.05 0.08 0.07 0.06 0.05 0.04 0.06 0.16 0.36 0.75 1.13 0.92 0.58 0.32 0.42 0.47 0.53 0.63 0.36 0.31 0.35 0.35